Погода в Армавире

Поиск расширенной информации на нашем сайте:

Полезная информация:

Новости сайта



02.01.2020
Опубликован Долгосрочный прогноз погоды по городам России и ближнего зарубежья на январь 2020 года.
Карты: Прогноз на январь и февраль 2020 года, Сравнение прогнозируемой аномалии приземной температуры воздуха на январь 2020 года по разным моделям.




Погода в Армавире - сегодня

Время (UTC), дата Ветер
(°,м/с) 
Видим.   Явления Облачность Т
(°С)
Тd
(°С)
f(%) Тe
(°С)
Pmin
(гПа)
dP
(гПа)
Po
(мм)
O2
(г/м3)
Тmin Tmax R s Состояние
почвы
00 19.01.20 070 (В) 10 км    10/10 600 м 
[Sc]
+0.4 -4.1 72 -1  1027.9  -0.2  756  305           
03 19.01.20 080 (В) 10 км    10/10 600 м 
[Sc]
+0.4 -4.2 71 1028  0.1  756  305  -0.2         
06 19.01.20 090 (В) 4{11}  10 км    10/10 600 м 
[Sc]
+1 -4.2 68 -1  1028.6  0.6  756  304           
09 19.01.20 100 (В) 6-11{11}  10 км    10/10 600 м 
[Sc]
+1.6 -4.4 64 -2  1028  -0.5  756  303           
12 19.01.20 090 (В) 5-11{12}  10 км    8/8 600 м 
[Sc]
+2 -4.9 60 -1  1027.3  -0.7  755  303           
15 19.01.20 100 (В) 4-10  10 км    10/10 600 м 
[Sc]
+1.2 -4.7 65 -1  1028.7  1.3  756  304    +2.7       
18 19.01.20 110 (В) 2{10}  10 км    10/10 600 м 
[Sc]
+0.5 -5.1 66 1029.6  0.8  757  305           
21 19.01.20 100 (В) 10 км    8/8 600 м 
[Sc]
+0.1 -5.3 67 -2  1029.8  0.2  757  306           
00 20.01.20 070 (В) 10 км    10/10 600 м 
[Sc]
-0.4 -5.1 70 -3  1030.3  0.5  758  306           
03 20.01.20 080 (В) 10 км    3/3 600 м 
[Sc]
-2.1 -6 75 -4  1030.4  0.1  758  308  -2.1         
06 20.01.20 050 (СВ) 10 км    8/8 600 м 
[Sc]
-2.9 -6.1 79 -4  1030.5  758  309  -3.5         
09 20.01.20 080 (В) 10 км    1/1 600 м 
[Sc]
+2.7 -4.6 59 +1  1029.5  -0.6  757  303           
12 20.01.20 020 (С) 10 км    ясно 
+3.8 -3.7 58 +3  1029.1  -0.3  757  301           
15 20.01.20 320 (СЗ) 10 км    ясно 
-0.5 -4.2 76 1030  0.6  757  306    +3.9       
18 20.01.20 330 (СЗ) 10 км    ясно 
-4.8 -6.1 91 -4  1031  0.6  758  311           
21 20.01.20 тихо ()   10 км    ясно 
-6.8 -7.7 93 -7  1031.7  0.6  758  314           
00 21.01.20 120 (ЮВ) 10 км    10/10 600 м 
[Sc]
-3 -4.1 92 -3  1031.5  0.1  758  309           
03 21.01.20 290 (З) 10 км    10/10 600 м 
[Sc]
-1.5 -3.5 86 -2  1031.1  -0.3  758  308  -7         
06 21.01.20 260 (З) 10 км    10/10 600 м 
[Sc]
-1.6 -4.3 82 -3  1031.4  0.2  758  308           
09 21.01.20 270 (З) 10 км  снежные зёрна  10/9 300 м средняя 
[St|As op]
-1.5 -3.7 85 -4  1030.8  -0.5  758  307           
12 21.01.20 280 (З) 10 км  {снег}  10/10 300 м 
[St]
-2.5 -4.7 85 -6  1029.9  -1  757  308           
15 21.01.20 240 (ЮЗ) 10 км    10/10 600 м 
[Sc]
-2.3 -4.7 84 -4  1029.5  -0.5  757  308    -1.5  0.0     
18 21.01.20 220 (ЮЗ) 10 км    10/10 600 м 
[Sc]
-2.1 -3.3 91 -4  1028.1  -1.3  756  307           
21 21.01.20 260 (З) 10 км    10/10 600 м 
[Sc]
-0.8 -2.8 86 -4  1026.6  -1.4  755  305           
00 22.01.20 230 (ЮЗ) 10 км    10/10 600 м 
[Sc]
+0.6 -2.4 80 -2  1023.9  -2.5  753  303           
Время (UTC), дата Ветер
(°,м/с) 
Видим.   Явления Облачность Т
(°С)
Тd
(°С)
f(%) Тe
(°С)
Pmin
(гПа)
dP
(гПа)
Po
(мм)
O2
(г/м3)
Тmin Tmax R s Состояние
почвы

Для получения пояснительной информации подведите курсор к названию столбца.

ПОГОДА в Армавире - архив

Всё, что Вы хотите узнать о погоде в Армавире - удобно и подробно!

Выберите нужную дату (начиная с 1 января 2019* года) и нажмите кнопку "Найти".
Будут отображены архивные сводки погоды по пункту Армавир, начиная с указанной даты.


Отображать данные в формате CSV (для использования в таблицах Excel)


Внимание! Наш архив погоды предназначен исключительно для личного некоммерческого использования в познавательных целях. Если Вам необходимы официальные справки о состоянии погоды (для производственных, юридических, коммерческих и т.п. целей), обращайтесь в органы Росгидромета.

*Примечание: данная дата относится к архиву по метеостанциям СССР (Россия, СНГ, Балтия).
Архив по метеостанциям Зарубежной Европы и Азии (кроме Китая) хранится 10 дней, по другим регионам земного шара (Китай, Африка, Америка, Австралия, Океания) - 1 день.

Армавир - район местоположения метеостанции


Название, широта, долгота, высота метеостанции:
Армавир 45°ш. 41.1°д. 159 м над ур. моря [Российская Федерация]

Дополнительная информация

В oтличие oт бoльшинства пoгoдных сайтoв мы публикуем пoдрoбную метеoинфoрмацию в детальнoм прoфессиoнальнoм фoрмате.

Характеристики температуры и влажнoсти вoздуха измеряются на высoте 2 м в тени вдали oт зданий и деревьев.
Скoрoсть ветра измеряется на высoте 10 м (на урoвне рoста челoвека скoрoсть ветра ниже в 1.5-2 раза). Если метеoстанция нахoдится в гoрoде или в лесу, тo скoрoсть ветра занижена на 2-4 м/с пo сравнению с oткрытым местoм. Скoрoсть ветра над акватoриями крупных рек и oзёр, а также на вершинах хoлмoв на 2-5 м/с выше, чем в oбычных услoвиях.
Атмoсфернoе давление в разных тoчках местнoсти мoжет значительнo oтличаться oт давления на метеoстанции, в зависимoсти oт услoвий рельефа (при пoдъёме на 10 м давление пoнижается примернo на 1 мм рт.ст.).